IRNSS-1G

Last updated on Oct. 23, 2020, 5:56 a.m. UTC

1 41469U 16027A   20296.85162366 -.00000349  00000-0  00000-0 0  9993
2 41469   2.0574 211.8738 0003121 308.4922 307.4379  1.00272285 16501
UTC
Height (km)
Latitude
Longitude
Inclination
Orbital Period
UTC large
Height (km)
Speed (km/s)
/
Latitude / Longitude
Inclination (degrees)
Orbital Period (minutes)
Azimuth
Elevation
Range (km)
Doppler Factor
iOS Compass Heading
iOS Angle

Next 30 passes for location: Hong Kong

Rise time Rise Azimuth (degrees) Set time Set Azimuth (degrees) Duration Max altitude (degrees)

No matching passes for this satellites